| time (UTC) | temp F | wind direction | speed MPH | gust MPH | rain 1hr in | rain 24hr in | rain mn in | humidity % | barometer mb |
| 20260507001339 | 62 | 315 | 1.0 | 2.0 | 0.00 | 0.02 | 0.01 | 94 | 1014.8 |
| 20260507001139 | 62 | 315 | 0.0 | 0.0 | 0.00 | 0.02 | 0.01 | 94 | 1014.9 |
| 20260507000940 | 62 | 315 | 0.0 | 0.0 | 0.00 | 0.02 | 0.01 | 94 | 1014.8 |
| 20260507000739 | 62 | 338 | 0.0 | 2.0 | 0.00 | 0.02 | 0.01 | 94 | 1014.7 |
| 20260507000542 | 62 | 270 | 2.0 | 2.0 | 0.00 | 0.02 | 0.01 | 94 | 1014.8 |
| 20260507000337 | 62 | 270 | 2.0 | 2.0 | 0.00 | 0.02 | 0.01 | 94 | 1015.0 |
| 20260507000139 | 62 | 270 | 2.0 | 2.0 | 0.00 | 0.02 | 0.01 | 94 | 1015.0 |
| 20260506235936 | 62 | 292 | 2.0 | 2.0 | 0.00 | 0.02 | 0.01 | 94 | 1014.7 |
| 20260506235544 | 62 | 315 | 1.0 | 2.0 | 0.00 | 0.02 | 0.01 | 94 | 1014.6 |
| 20260506235139 | 62 | 315 | 0.0 | 0.0 | 0.00 | 0.02 | 0.01 | 94 | 1014.7 |
| 20260506234937 | 62 | 315 | 0.0 | 0.0 | 0.00 | 0.02 | 0.01 | 94 | 1014.7 |
| 20260506234740 | 62 | 315 | 0.0 | 0.0 | 0.00 | 0.02 | 0.01 | 94 | 1014.6 |
| 20260506234544 | 62 | 315 | 0.0 | 2.0 | 0.00 | 0.02 | 0.01 | 94 | 1014.6 |
| 20260506234339 | 62 | 292 | 0.0 | 2.0 | 0.00 | 0.02 | 0.01 | 94 | 1014.5 |
| 20260506234139 | 62 | 315 | 1.0 | 2.0 | 0.00 | 0.02 | 0.01 | 94 | 1014.5 |
| 20260506233940 | 62 | 338 | 0.0 | 2.0 | 0.00 | 0.02 | 0.01 | 94 | 1014.5 |
| 20260506233739 | 62 | 0 | 1.0 | 2.0 | 0.00 | 0.02 | 0.01 | 94 | 1014.3 |
| 20260506233542 | 62 | 0 | 0.0 | 2.0 | 0.00 | 0.02 | 0.01 | 94 | 1014.3 |
| 20260506233337 | 62 | 0 | 0.0 | 2.0 | 0.00 | 0.02 | 0.01 | 94 | 1014.6 |
| 20260506233136 | 62 | 315 | 0.0 | 0.0 | 0.00 | 0.02 | 0.01 | 94 | 1014.5 |
| 20260506232938 | 62 | 315 | 0.0 | 2.0 | 0.00 | 0.02 | 0.01 | 94 | 1014.6 |
| 20260506232738 | 62 | 315 | 1.0 | 2.0 | 0.00 | 0.02 | 0.01 | 94 | 1014.7 |
| 20260506232546 | 62 | 315 | 0.0 | 0.0 | 0.00 | 0.02 | 0.01 | 94 | 1014.8 |
| 20260506232337 | 62 | 315 | 0.0 | 0.0 | 0.00 | 0.02 | 0.01 | 94 | 1014.8 |
| 20260506232137 | 62 | 315 | 0.0 | 0.0 | 0.00 | 0.02 | 0.01 | 94 | 1014.7 |
| 20260506231938 | 62 | 315 | 1.0 | 2.0 | 0.00 | 0.02 | 0.01 | 94 | 1014.8 |
| 20260506231737 | 62 | 338 | 1.0 | 2.0 | 0.01 | 0.02 | 0.01 | 93 | 1014.9 |
| 20260506231543 | 62 | 292 | 2.0 | 2.0 | 0.01 | 0.02 | 0.01 | 93 | 1014.7 |
| 20260506231338 | 62 | 292 | 1.0 | 2.0 | 0.01 | 0.02 | 0.01 | 93 | 1014.8 |
| 20260506231136 | 62 | 0 | 1.0 | 2.0 | 0.01 | 0.02 | 0.01 | 93 | 1014.6 |
| 20260506230940 | 62 | 22 | 1.0 | 2.0 | 0.01 | 0.02 | 0.01 | 93 | 1014.6 |
| 20260506230737 | 62 | 0 | 0.0 | 2.0 | 0.01 | 0.02 | 0.01 | 93 | 1014.7 |
| 20260506230337 | 62 | 315 | 1.0 | 2.0 | 0.01 | 0.02 | 0.01 | 93 | 1014.6 |
| 20260506230137 | 62 | 22 | 0.0 | 2.0 | 0.01 | 0.02 | 0.01 | 93 | 1014.5 |
| 20260506225938 | 62 | 338 | 2.0 | 4.0 | 0.01 | 0.02 | 0.01 | 93 | 1014.7 |
| 20260506225737 | 62 | 45 | 2.0 | 4.0 | 0.01 | 0.02 | 0.01 | 93 | 1014.5 |
| 20260506225544 | 62 | 22 | 2.0 | 4.0 | 0.01 | 0.02 | 0.01 | 93 | 1014.5 |
| 20260506225342 | 62 | 22 | 2.0 | 4.0 | 0.01 | 0.02 | 0.01 | 93 | 1014.4 |
| 20260506225137 | 62 | 45 | 2.0 | 2.0 | 0.01 | 0.02 | 0.01 | 93 | 1014.5 |
| 20260506224939 | 62 | 22 | 1.0 | 2.0 | 0.01 | 0.02 | 0.01 | 93 | 1014.4 |
| 20260506224738 | 62 | 0 | 1.0 | 2.0 | 0.01 | 0.02 | 0.01 | 93 | 1014.7 |
| 20260506224338 | 62 | 0 | 2.0 | 4.0 | 0.01 | 0.02 | 0.01 | 93 | 1014.8 |
| 20260506224138 | 62 | 338 | 1.0 | 2.0 | 0.01 | 0.02 | 0.01 | 93 | 1014.7 |
| 20260506223941 | 62 | 315 | 2.0 | 2.0 | 0.01 | 0.02 | 0.01 | 93 | 1014.6 |
| 20260506223738 | 62 | 292 | 2.0 | 4.0 | 0.01 | 0.02 | 0.01 | 93 | 1014.7 |
| 20260506223541 | 62 | 315 | 2.0 | 2.0 | 0.01 | 0.02 | 0.01 | 93 | 1014.7 |
| 20260506223338 | 62 | 315 | 2.0 | 4.0 | 0.02 | 0.02 | 0.01 | 93 | 1014.6 |
| 20260506222937 | 62 | 315 | 2.0 | 2.0 | 0.02 | 0.02 | 0.01 | 93 | 1014.6 |
| 20260506222738 | 62 | 292 | 2.0 | 4.0 | 0.02 | 0.02 | 0.01 | 93 | 1014.5 |
| 20260506222543 | 62 | 338 | 1.0 | 2.0 | 0.02 | 0.02 | 0.01 | 93 | 1014.7 |
| 20260506222338 | 62 | 338 | 2.0 | 4.0 | 0.02 | 0.02 | 0.01 | 93 | 1014.7 |
| 20260506222137 | 62 | 0 | 2.0 | 4.0 | 0.02 | 0.02 | 0.01 | 93 | 1014.5 |
| 20260506221938 | 62 | 22 | 2.0 | 4.0 | 0.01 | 0.01 | 0.00 | 93 | 1014.3 |
| 20260506221738 | 62 | 338 | 2.0 | 4.0 | 0.01 | 0.01 | 0.00 | 93 | 1014.6 |
| 20260506221544 | 62 | 292 | 2.0 | 4.0 | 0.01 | 0.01 | 0.00 | 92 | 1014.5 |
| 20260506221338 | 62 | 22 | 2.0 | 4.0 | 0.01 | 0.01 | 0.00 | 92 | 1014.6 |
| 20260506220940 | 62 | 0 | 1.0 | 4.0 | 0.01 | 0.01 | 0.00 | 92 | 1015.0 |
| 20260506220542 | 62 | 315 | 3.0 | 4.0 | 0.01 | 0.01 | 0.00 | 92 | 1014.8 |
| 20260506220338 | 62 | 315 | 3.0 | 6.0 | 0.01 | 0.01 | 0.00 | 92 | 1014.8 |
| 20260506220223 | 62 | 292 | 2.0 | 4.0 | 0.01 | 0.01 | 0.01 | 92 | 1014.8 |
| 20260506215739 | 62 | 315 | 3.0 | 6.0 | 0.01 | 0.01 | 0.01 | 92 | 1014.7 |
| 20260506215544 | 62 | 292 | 3.0 | 4.0 | 0.01 | 0.01 | 0.01 | 92 | 1014.8 |
| 20260506215338 | 62 | 292 | 2.0 | 4.0 | 0.01 | 0.01 | 0.01 | 92 | 1014.7 |
| 20260506215138 | 62 | 315 | 2.0 | 4.0 | 0.01 | 0.01 | 0.01 | 92 | 1014.7 |
| 20260506214937 | 62 | 315 | 2.0 | 4.0 | 0.01 | 0.01 | 0.01 | 92 | 1014.7 |
| 20260506214738 | 62 | 0 | 3.0 | 6.0 | 0.01 | 0.01 | 0.01 | 92 | 1014.7 |
| 20260506214544 | 62 | 315 | 4.0 | 7.0 | 0.01 | 0.01 | 0.01 | 92 | 1014.7 |
| 20260506214138 | 62 | 338 | 4.0 | 7.0 | 0.01 | 0.01 | 0.01 | 92 | 1014.7 |
| 20260506213940 | 62 | 270 | 2.0 | 4.0 | 0.01 | 0.01 | 0.01 | 92 | 1014.7 |
| 20260506213736 | 62 | 315 | 2.0 | 4.0 | 0.01 | 0.01 | 0.01 | 92 | 1014.7 |
| 20260506213542 | 62 | 315 | 3.0 | 4.0 | 0.00 | 0.00 | 0.00 | 92 | 1014.7 |
| 20260506213338 | 62 | 315 | 2.0 | 4.0 | 0.00 | 0.00 | 0.00 | 91 | 1014.7 |
| 20260506213138 | 62 | 315 | 3.0 | 4.0 | 0.00 | 0.00 | 0.00 | 91 | 1014.6 |
| 20260506212938 | 62 | 315 | 4.0 | 6.0 | 0.00 | 0.00 | 0.00 | 91 | 1014.6 |
| 20260506212739 | 62 | 315 | 2.0 | 2.0 | 0.00 | 0.00 | 0.00 | 91 | 1014.6 |
| 20260506212545 | 62 | 338 | 2.0 | 4.0 | 0.00 | 0.00 | 0.00 | 91 | 1014.6 |
| 20260506212338 | 62 | 315 | 2.0 | 4.0 | 0.00 | 0.00 | 0.00 | 91 | 1014.6 |
| 20260506212139 | 62 | 292 | 3.0 | 6.0 | 0.00 | 0.00 | 0.00 | 91 | 1014.8 |
| 20260506211940 | 62 | 315 | 2.0 | 4.0 | 0.00 | 0.00 | 0.00 | 91 | 1014.5 |
| 20260506211737 | 62 | 315 | 2.0 | 4.0 | 0.00 | 0.00 | 0.00 | 91 | 1014.6 |
| 20260506211544 | 62 | 315 | 2.0 | 4.0 | 0.00 | 0.00 | 0.00 | 91 | 1014.4 |
| 20260506211338 | 62 | 315 | 3.0 | 4.0 | 0.00 | 0.00 | 0.00 | 91 | 1014.3 |
| 20260506211139 | 62 | 315 | 2.0 | 4.0 | 0.00 | 0.00 | 0.00 | 91 | 1014.5 |
| 20260506210941 | 62 | 315 | 3.0 | 4.0 | 0.00 | 0.00 | 0.00 | 91 | 1014.4 |
| 20260506210337 | 62 | 338 | 2.0 | 4.0 | 0.00 | 0.00 | 0.00 | 91 | 1014.7 |
| 20260506210138 | 62 | 315 | 2.0 | 2.0 | 0.00 | 0.00 | 0.00 | 91 | 1014.5 |
| 20260506205939 | 62 | 315 | 2.0 | 4.0 | 0.00 | 0.00 | 0.00 | 90 | 1014.6 |
| 20260506205737 | 62 | 338 | 2.0 | 4.0 | 0.00 | 0.00 | 0.00 | 90 | 1014.8 |
| 20260506205544 | 62 | 315 | 2.0 | 4.0 | 0.00 | 0.00 | 0.00 | 90 | 1014.5 |
| 20260506205337 | 62 | 315 | 3.0 | 4.0 | 0.00 | 0.00 | 0.00 | 90 | 1014.5 |
| 20260506204737 | 63 | 292 | 2.0 | 4.0 | 0.00 | 0.00 | 0.00 | 90 | 1014.7 |
| 20260506204136 | 63 | 315 | 3.0 | 4.0 | 0.00 | 0.00 | 0.00 | 90 | 1014.6 |
| 20260506203738 | 62 | 338 | 3.0 | 4.0 | 0.00 | 0.00 | 0.00 | 90 | 1014.7 |
| 20260506203540 | 62 | 315 | 2.0 | 4.0 | 0.00 | 0.00 | 0.00 | 90 | 1014.7 |
| 20260506203337 | 62 | 338 | 2.0 | 4.0 | 0.00 | 0.00 | 0.00 | 90 | 1014.6 |
| 20260506202939 | 62 | 315 | 2.0 | 4.0 | 0.00 | 0.00 | 0.00 | 90 | 1014.6 |
| 20260506202738 | 62 | 292 | 1.0 | 2.0 | 0.00 | 0.00 | 0.00 | 90 | 1014.8 |
| 20260506202543 | 62 | 315 | 2.0 | 2.0 | 0.00 | 0.00 | 0.00 | 90 | 1014.8 |
| 20260506201939 | 62 | 292 | 2.0 | 2.0 | 0.00 | 0.00 | 0.00 | 90 | 1014.6 |
| 20260506201738 | 62 | 270 | 2.0 | 2.0 | 0.00 | 0.00 | 0.00 | 90 | 1014.6 |
| 20260506201545 | 62 | 292 | 1.0 | 2.0 | 0.00 | 0.00 | 0.00 | 90 | 1014.7 |
| 20260506201337 | 62 | 315 | 2.0 | 4.0 | 0.00 | 0.00 | 0.00 | 89 | 1014.6 |
| 20260506201138 | 62 | 315 | 2.0 | 2.0 | 0.00 | 0.00 | 0.00 | 89 | 1014.7 |
| 20260506200739 | 63 | 315 | 2.0 | 2.0 | 0.00 | 0.00 | 0.00 | 89 | 1014.6 |
| 20260506200542 | 63 | 315 | 1.0 | 2.0 | 0.00 | 0.00 | 0.00 | 89 | 1014.3 |
| 20260506200338 | 63 | 315 | 2.0 | 4.0 | 0.00 | 0.00 | 0.00 | 89 | 1014.5 |
| 20260506200138 | 63 | 315 | 1.0 | 2.0 | 0.00 | 0.00 | 0.00 | 89 | 1014.4 |
| 20260506195941 | 63 | 315 | 1.0 | 2.0 | 0.00 | 0.00 | 0.00 | 89 | 1014.4 |
| 20260506195739 | 63 | 315 | 0.0 | 2.0 | 0.00 | 0.00 | 0.00 | 89 | 1014.4 |
| 20260506195545 | 63 | 315 | 1.0 | 2.0 | 0.00 | 0.00 | 0.00 | 89 | 1014.4 |
| 20260506195338 | 63 | 315 | 1.0 | 2.0 | 0.00 | 0.00 | 0.00 | 89 | 1014.4 |
| 20260506195138 | 63 | 22 | 2.0 | 4.0 | 0.00 | 0.00 | 0.00 | 89 | 1014.4 |
| 20260506194939 | 63 | 315 | 0.0 | 2.0 | 0.00 | 0.00 | 0.00 | 89 | 1014.4 |
| 20260506194739 | 63 | 315 | 2.0 | 2.0 | 0.00 | 0.00 | 0.00 | 89 | 1014.4 |
| 20260506194546 | 63 | 315 | 1.0 | 2.0 | 0.00 | 0.00 | 0.00 | 88 | 1014.3 |
| 20260506194339 | 63 | 338 | 0.0 | 2.0 | 0.00 | 0.00 | 0.00 | 88 | 1014.2 |
| 20260506193941 | 63 | 292 | 1.0 | 2.0 | 0.00 | 0.00 | 0.00 | 88 | 1014.2 |
| 20260506193738 | 63 | 315 | 2.0 | 4.0 | 0.00 | 0.00 | 0.00 | 88 | 1014.1 |
| 20260506193542 | 63 | 315 | 0.0 | 2.0 | 0.00 | 0.00 | 0.00 | 88 | 1014.2 |
| 20260506193337 | 63 | 315 | 1.0 | 2.0 | 0.00 | 0.00 | 0.00 | 88 | 1013.9 |
| 20260506193138 | 63 | 338 | 1.0 | 2.0 | 0.00 | 0.00 | 0.00 | 88 | 1014.1 |
| 20260506192939 | 63 | 0 | 0.0 | 2.0 | 0.00 | 0.00 | 0.00 | 88 | 1014.2 |
| 20260506192738 | 63 | 315 | 0.0 | 2.0 | 0.00 | 0.00 | 0.00 | 88 | 1014.1 |
| 20260506192548 | 63 | 338 | 1.0 | 2.0 | 0.00 | 0.00 | 0.00 | 88 | 1014.0 |
| 20260506192339 | 63 | 338 | 2.0 | 4.0 | 0.00 | 0.00 | 0.00 | 88 | 1014.0 |
| 20260506192139 | 63 | 338 | 2.0 | 4.0 | 0.00 | 0.00 | 0.00 | 88 | 1014.1 |
| 20260506191738 | 63 | 338 | 2.0 | 2.0 | 0.00 | 0.00 | 0.00 | 88 | 1014.1 |
| 20260506191546 | 64 | 22 | 1.0 | 2.0 | 0.00 | 0.00 | 0.00 | 88 | 1013.9 |
| 20260506191140 | 64 | 22 | 2.0 | 4.0 | 0.00 | 0.00 | 0.00 | 88 | 1014.0 |
| 20260506190943 | 64 | 22 | 2.0 | 4.0 | 0.00 | 0.00 | 0.00 | 88 | 1014.0 |
| 20260506190741 | 64 | 22 | 2.0 | 4.0 | 0.00 | 0.00 | 0.00 | 87 | 1014.0 |
| 20260506190543 | 64 | 338 | 2.0 | 4.0 | 0.00 | 0.00 | 0.00 | 87 | 1014.0 |
| 20260506190339 | 64 | 338 | 1.0 | 2.0 | 0.00 | 0.00 | 0.00 | 87 | 1013.9 |
| 20260506190139 | 64 | 338 | 2.0 | 2.0 | 0.00 | 0.00 | 0.00 | 87 | 1013.9 |
| 20260506185939 | 64 | 22 | 2.0 | 2.0 | 0.00 | 0.00 | 0.00 | 87 | 1014.1 |
| 20260506185740 | 64 | 45 | 2.0 | 4.0 | 0.00 | 0.00 | 0.00 | 87 | 1014.0 |
| 20260506185545 | 64 | 338 | 1.0 | 2.0 | 0.00 | 0.00 | 0.00 | 87 | 1013.8 |
| 20260506185139 | 64 | 45 | 2.0 | 4.0 | 0.00 | 0.00 | 0.00 | 87 | 1013.8 |
| 20260506184940 | 64 | 22 | 0.0 | 2.0 | 0.00 | 0.00 | 0.00 | 87 | 1013.8 |
| 20260506184738 | 64 | 292 | 1.0 | 2.0 | 0.00 | 0.00 | 0.00 | 87 | 1013.7 |
| 20260506184543 | 64 | 22 | 2.0 | 2.0 | 0.00 | 0.00 | 0.00 | 87 | 1013.8 |
| 20260506184340 | 64 | 45 | 2.0 | 2.0 | 0.00 | 0.00 | 0.00 | 87 | 1013.6 |
| 20260506184138 | 64 | 22 | 1.0 | 2.0 | 0.00 | 0.00 | 0.00 | 87 | 1013.7 |
| 20260506183944 | 64 | 22 | 2.0 | 4.0 | 0.00 | 0.00 | 0.00 | 87 | 1013.8 |
| 20260506183739 | 64 | 0 | 2.0 | 4.0 | 0.00 | 0.00 | 0.00 | 87 | 1013.8 |
| 20260506183542 | 64 | 45 | 2.0 | 2.0 | 0.00 | 0.00 | 0.00 | 87 | 1013.7 |
| 20260506183138 | 64 | 45 | 1.0 | 2.0 | 0.00 | 0.00 | 0.00 | 87 | 1013.7 |
| 20260506182940 | 64 | 22 | 1.0 | 2.0 | 0.00 | 0.00 | 0.00 | 87 | 1013.7 |
| 20260506182741 | 64 | 22 | 1.0 | 2.0 | 0.00 | 0.00 | 0.00 | 87 | 1013.8 |
| 20260506182543 | 64 | 45 | 3.0 | 4.0 | 0.00 | 0.00 | 0.00 | 87 | 1013.7 |
| 20260506182339 | 64 | 22 | 2.0 | 2.0 | 0.00 | 0.00 | 0.00 | 87 | 1013.8 |
| 20260506182137 | 64 | 22 | 1.0 | 2.0 | 0.00 | 0.00 | 0.00 | 87 | 1013.7 |
| 20260506181939 | 64 | 22 | 1.0 | 2.0 | 0.00 | 0.00 | 0.00 | 87 | 1013.7 |
| 20260506181740 | 64 | 22 | 1.0 | 2.0 | 0.00 | 0.00 | 0.00 | 87 | 1013.9 |
| 20260506181545 | 64 | 45 | 1.0 | 2.0 | 0.00 | 0.00 | 0.00 | 87 | 1013.7 |
| 20260506181338 | 64 | 68 | 1.0 | 2.0 | 0.00 | 0.00 | 0.00 | 87 | 1013.7 |
| 20260506181137 | 64 | 45 | 1.0 | 2.0 | 0.00 | 0.00 | 0.00 | 86 | 1013.8 |
| 20260506180337 | 64 | 22 | 3.0 | 4.0 | 0.00 | 0.00 | 0.00 | 86 | 1013.7 |
| 20260506180137 | 64 | 22 | 3.0 | 4.0 | 0.00 | 0.00 | 0.00 | 86 | 1013.8 |
| 20260506175938 | 64 | 45 | 3.0 | 4.0 | 0.00 | 0.00 | 0.00 | 86 | 1013.8 |
| 20260506175738 | 64 | 22 | 2.0 | 4.0 | 0.00 | 0.00 | 0.00 | 86 | 1013.8 |
| 20260506175542 | 64 | 45 | 2.0 | 2.0 | 0.00 | 0.00 | 0.00 | 86 | 1013.9 |
| 20260506175338 | 64 | 22 | 2.0 | 2.0 | 0.00 | 0.00 | 0.00 | 86 | 1013.7 |
| 20260506174737 | 64 | 45 | 2.0 | 2.0 | 0.00 | 0.00 | 0.00 | 86 | 1013.7 |
| 20260506174338 | 64 | 45 | 2.0 | 2.0 | 0.00 | 0.00 | 0.00 | 86 | 1013.7 |
| 20260506174139 | 64 | 112 | 0.0 | 0.0 | 0.00 | 0.00 | 0.00 | 86 | 1013.8 |
| 20260506173942 | 64 | 0 | 1.0 | 2.0 | 0.00 | 0.00 | 0.00 | 86 | 1013.9 |
| 20260506173140 | 64 | 90 | 2.0 | 2.0 | 0.00 | 0.00 | 0.00 | 85 | 1013.7 |
| 20260506172947 | 64 | 68 | 2.0 | 4.0 | 0.00 | 0.00 | 0.00 | 85 | 1013.9 |
| 20260506172739 | 64 | 45 | 2.0 | 4.0 | 0.00 | 0.00 | 0.00 | 85 | 1013.8 |
| 20260506172137 | 64 | 45 | 2.0 | 2.0 | 0.00 | 0.00 | 0.00 | 85 | 1013.9 |
| 20260506171939 | 64 | 90 | 1.0 | 2.0 | 0.00 | 0.00 | 0.00 | 85 | 1013.7 |
| 20260506171738 | 64 | 112 | 1.0 | 2.0 | 0.00 | 0.00 | 0.00 | 85 | 1013.7 |
| 20260506171544 | 64 | 90 | 2.0 | 2.0 | 0.00 | 0.00 | 0.00 | 85 | 1013.9 |
| 20260506171339 | 64 | 90 | 2.0 | 2.0 | 0.00 | 0.00 | 0.00 | 85 | 1014.0 |
| 20260506171138 | 64 | 135 | 2.0 | 2.0 | 0.00 | 0.00 | 0.00 | 85 | 1013.8 |
| 20260506170941 | 65 | 112 | 2.0 | 2.0 | 0.00 | 0.00 | 0.00 | 85 | 1013.8 |
| 20260506170737 | 65 | 112 | 0.0 | 2.0 | 0.00 | 0.00 | 0.00 | 85 | 1013.9 |
| 20260506170542 | 65 | 135 | 2.0 | 4.0 | 0.00 | 0.00 | 0.00 | 85 | 1013.8 |
| 20260506170338 | 65 | 112 | 2.0 | 4.0 | 0.00 | 0.00 | 0.00 | 85 | 1013.8 |
| 20260506170138 | 65 | 112 | 2.0 | 2.0 | 0.00 | 0.00 | 0.00 | 85 | 1013.8 |
| 20260506165940 | 65 | 135 | 2.0 | 2.0 | 0.00 | 0.00 | 0.00 | 85 | 1013.9 |
| 20260506165542 | 65 | 112 | 2.0 | 4.0 | 0.00 | 0.00 | 0.00 | 85 | 1013.8 |
| 20260506165337 | 64 | 112 | 2.0 | 2.0 | 0.00 | 0.00 | 0.00 | 85 | 1013.7 |
| 20260506165138 | 65 | 135 | 3.0 | 4.0 | 0.00 | 0.00 | 0.00 | 85 | 1013.8 |
| 20260506164940 | 65 | 135 | 2.0 | 4.0 | 0.00 | 0.00 | 0.00 | 85 | 1013.9 |
| 20260506164737 | 64 | 90 | 3.0 | 4.0 | 0.00 | 0.00 | 0.00 | 85 | 1013.6 |
| 20260506164338 | 65 | 90 | 3.0 | 6.0 | 0.00 | 0.00 | 0.00 | 85 | 1013.5 |
| 20260506163738 | 65 | 90 | 4.0 | 6.0 | 0.00 | 0.00 | 0.00 | 85 | 1013.6 |
| 20260506163337 | 65 | 112 | 3.0 | 6.0 | 0.00 | 0.00 | 0.00 | 84 | 1013.8 |
| 20260506163139 | 65 | 68 | 4.0 | 7.0 | 0.00 | 0.00 | 0.00 | 84 | 1013.8 |
| 20260506162738 | 65 | 112 | 4.0 | 4.0 | 0.00 | 0.00 | 0.00 | 84 | 1013.6 |
| 20260506162543 | 65 | 112 | 3.0 | 4.0 | 0.00 | 0.00 | 0.00 | 84 | 1013.7 |
| 20260506162338 | 65 | 112 | 2.0 | 4.0 | 0.00 | 0.00 | 0.00 | 84 | 1013.8 |
| 20260506162137 | 65 | 135 | 2.0 | 2.0 | 0.00 | 0.00 | 0.00 | 84 | 1013.9 |
| 20260506161939 | 65 | 90 | 3.0 | 4.0 | 0.00 | 0.00 | 0.00 | 84 | 1013.8 |
| 20260506161736 | 65 | 112 | 2.0 | 4.0 | 0.00 | 0.00 | 0.00 | 84 | 1013.8 |
| 20260506161339 | 65 | 248 | 2.0 | 4.0 | 0.00 | 0.00 | 0.00 | 84 | 1013.8 |
| 20260506161137 | 65 | 135 | 2.0 | 4.0 | 0.00 | 0.00 | 0.00 | 84 | 1013.8 |
| 20260506160737 | 65 | 68 | 5.0 | 7.0 | 0.00 | 0.00 | 0.00 | 84 | 1013.8 |
| 20260506160540 | 65 | 112 | 5.0 | 7.0 | 0.00 | 0.00 | 0.00 | 84 | 1013.7 |
| 20260506160339 | 65 | 112 | 4.0 | 4.0 | 0.00 | 0.00 | 0.00 | 84 | 1013.8 |
| 20260506155939 | 65 | 90 | 4.0 | 7.0 | 0.00 | 0.00 | 0.00 | 84 | 1013.7 |
| 20260506155338 | 65 | 112 | 4.0 | 7.0 | 0.00 | 0.00 | 0.00 | 84 | 1013.8 |
| 20260506155138 | 65 | 90 | 2.0 | 4.0 | 0.00 | 0.00 | 0.00 | 84 | 1013.7 |
| 20260506154940 | 65 | 112 | 5.0 | 8.0 | 0.00 | 0.00 | 0.00 | 83 | 1013.8 |
| 20260506154739 | 65 | 90 | 4.0 | 7.0 | 0.00 | 0.00 | 0.00 | 84 | 1013.7 |
| 20260506154339 | 65 | 90 | 4.0 | 7.0 | 0.00 | 0.00 | 0.00 | 84 | 1013.8 |
| 20260506154137 | 65 | 135 | 5.0 | 7.0 | 0.00 | 0.00 | 0.00 | 83 | 1013.9 |
| 20260506153942 | 65 | 90 | 5.0 | 8.0 | 0.00 | 0.00 | 0.00 | 83 | 1013.9 |
| 20260506153738 | 65 | 112 | 3.0 | 7.0 | 0.00 | 0.00 | 0.00 | 83 | 1013.8 |
| 20260506153541 | 65 | 135 | 4.0 | 7.0 | 0.00 | 0.00 | 0.00 | 83 | 1013.6 |
| 20260506152939 | 66 | 90 | 4.0 | 7.0 | 0.00 | 0.00 | 0.00 | 83 | 1013.8 |
| 20260506152737 | 66 | 135 | 4.0 | 7.0 | 0.00 | 0.00 | 0.00 | 82 | 1013.8 |
| 20260506152544 | 66 | 68 | 2.0 | 4.0 | 0.00 | 0.00 | 0.00 | 83 | 1013.8 |
| 20260506152339 | 66 | 90 | 6.0 | 9.0 | 0.00 | 0.00 | 0.00 | 82 | 1013.8 |
| 20260506152137 | 66 | 112 | 2.0 | 4.0 | 0.00 | 0.00 | 0.00 | 82 | 1013.8 |
| 20260506151941 | 66 | 112 | 6.0 | 8.0 | 0.00 | 0.00 | 0.00 | 82 | 1013.8 |
| 20260506151739 | 66 | 135 | 4.0 | 7.0 | 0.00 | 0.00 | 0.00 | 82 | 1013.6 |
| 20260506151544 | 66 | 135 | 5.0 | 8.0 | 0.00 | 0.00 | 0.00 | 81 | 1013.7 |
| 20260506150941 | 67 | 135 | 3.0 | 6.0 | 0.00 | 0.00 | 0.00 | 81 | 1013.9 |
| 20260506150737 | 66 | 135 | 4.0 | 8.0 | 0.00 | 0.00 | 0.00 | 82 | 1013.9 |
| 20260506150540 | 66 | 112 | 5.0 | 8.0 | 0.00 | 0.00 | 0.00 | 82 | 1013.9 |
| 20260506150338 | 67 | 112 | 6.0 | 11.0 | 0.00 | 0.00 | 0.00 | 81 | 1013.8 |
| 20260506150138 | 67 | 90 | 7.0 | 11.0 | 0.00 | 0.00 | 0.00 | 79 | 1013.9 |
| 20260506145738 | 68 | 112 | 4.0 | 6.0 | 0.00 | 0.00 | 0.00 | 80 | 1013.8 |
| 20260506145543 | 68 | 90 | 5.0 | 8.0 | 0.00 | 0.00 | 0.00 | 79 | 1013.9 |
| 20260506145337 | 67 | 135 | 2.0 | 6.0 | 0.00 | 0.00 | 0.00 | 80 | 1013.8 |
| 20260506145137 | 67 | 90 | 4.0 | 6.0 | 0.00 | 0.00 | 0.00 | 81 | 1013.7 |
| 20260506144940 | 67 | 90 | 6.0 | 9.0 | 0.00 | 0.00 | 0.00 | 80 | 1013.6 |
| 20260506144737 | 67 | 112 | 8.0 | 14.0 | 0.00 | 0.00 | 0.00 | 80 | 1013.7 |
| 20260506144545 | 67 | 112 | 7.0 | 11.0 | 0.00 | 0.00 | 0.00 | 80 | 1013.7 |
| 20260506144337 | 68 | 112 | 5.0 | 9.0 | 0.00 | 0.00 | 0.00 | 79 | 1013.9 |
| 20260506144137 | 68 | 90 | 6.0 | 8.0 | 0.00 | 0.00 | 0.00 | 79 | 1013.7 |
| 20260506143940 | 68 | 112 | 4.0 | 8.0 | 0.00 | 0.00 | 0.00 | 78 | 1014.0 |
| 20260506143738 | 68 | 90 | 2.0 | 4.0 | 0.00 | 0.00 | 0.00 | 79 | 1013.9 |
| 20260506143539 | 68 | 90 | 5.0 | 9.0 | 0.00 | 0.00 | 0.00 | 79 | 1014.0 |
| 20260506143336 | 68 | 135 | 3.0 | 6.0 | 0.00 | 0.00 | 0.00 | 80 | 1013.8 |
| 20260506143138 | 68 | 158 | 6.0 | 8.0 | 0.00 | 0.00 | 0.00 | 80 | 1013.9 |
| 20260506142938 | 68 | 90 | 5.0 | 8.0 | 0.00 | 0.00 | 0.00 | 80 | 1013.9 |
| 20260506142737 | 68 | 135 | 4.0 | 6.0 | 0.00 | 0.00 | 0.00 | 79 | 1013.9 |
| 20260506142337 | 68 | 90 | 6.0 | 8.0 | 0.00 | 0.00 | 0.00 | 79 | 1013.8 |
| 20260506142136 | 67 | 158 | 4.0 | 6.0 | 0.00 | 0.00 | 0.00 | 79 | 1013.8 |
| 20260506141940 | 67 | 68 | 5.0 | 8.0 | 0.00 | 0.00 | 0.00 | 80 | 1013.9 |
| 20260506141737 | 68 | 112 | 7.0 | 11.0 | 0.00 | 0.00 | 0.00 | 79 | 1013.9 |
| 20260506141543 | 68 | 90 | 5.0 | 8.0 | 0.00 | 0.00 | 0.00 | 78 | 1013.9 |
| 20260506141337 | 68 | 90 | 4.0 | 8.0 | 0.00 | 0.00 | 0.00 | 79 | 1013.9 |
| 20260506140738 | 69 | 90 | 7.0 | 9.0 | 0.00 | 0.00 | 0.00 | 77 | 1013.8 |
| 20260506140338 | 69 | 135 | 5.0 | 7.0 | 0.00 | 0.00 | 0.00 | 76 | 1013.6 |
| 20260506140136 | 69 | 112 | 5.0 | 8.0 | 0.00 | 0.00 | 0.00 | 77 | 1013.6 |
| 20260506135938 | 69 | 112 | 6.0 | 9.0 | 0.00 | 0.00 | 0.00 | 75 | 1013.6 |
| 20260506135736 | 69 | 68 | 7.0 | 11.0 | 0.00 | 0.00 | 0.00 | 77 | 1013.6 |
| 20260506135544 | 69 | 90 | 4.0 | 9.0 | 0.00 | 0.00 | 0.00 | 76 | 1013.6 |
| 20260506135337 | 69 | 112 | 4.0 | 8.0 | 0.00 | 0.00 | 0.00 | 76 | 1013.7 |
| 20260506135138 | 69 | 90 | 5.0 | 7.0 | 0.00 | 0.00 | 0.00 | 77 | 1013.6 |
| 20260506134940 | 69 | 68 | 3.0 | 6.0 | 0.00 | 0.00 | 0.00 | 77 | 1013.7 |
| 20260506134737 | 68 | 68 | 5.0 | 8.0 | 0.00 | 0.00 | 0.00 | 77 | 1013.7 |
| 20260506134542 | 68 | 45 | 5.0 | 8.0 | 0.00 | 0.00 | 0.00 | 78 | 1013.8 |
| 20260506134338 | 68 | 135 | 5.0 | 8.0 | 0.00 | 0.00 | 0.00 | 79 | 1013.9 |
| 20260506133737 | 69 | 112 | 4.0 | 7.0 | 0.00 | 0.00 | 0.00 | 76 | 1013.9 |
| 20260506133541 | 69 | 68 | 4.0 | 6.0 | 0.00 | 0.00 | 0.00 | 76 | 1014.0 |
| 20260506133338 | 69 | 135 | 4.0 | 8.0 | 0.00 | 0.00 | 0.00 | 77 | 1013.8 |
| 20260506132938 | 69 | 68 | 4.0 | 7.0 | 0.00 | 0.00 | 0.00 | 75 | 1013.9 |
| 20260506132737 | 69 | 112 | 3.0 | 4.0 | 0.00 | 0.00 | 0.00 | 75 | 1014.0 |
| 20260506132543 | 69 | 68 | 3.0 | 4.0 | 0.00 | 0.00 | 0.00 | 75 | 1014.1 |
| 20260506132337 | 69 | 90 | 3.0 | 4.0 | 0.00 | 0.00 | 0.00 | 74 | 1014.1 |
| 20260506132137 | 70 | 112 | 1.0 | 2.0 | 0.00 | 0.00 | 0.00 | 73 | 1014.0 |
| 20260506131939 | 70 | 112 | 3.0 | 4.0 | 0.00 | 0.00 | 0.00 | 74 | 1014.2 |
| 20260506131737 | 70 | 135 | 3.0 | 4.0 | 0.00 | 0.00 | 0.00 | 74 | 1014.2 |
| 20260506131543 | 69 | 90 | 4.0 | 7.0 | 0.00 | 0.00 | 0.00 | 73 | 1013.9 |
| 20260506131337 | 69 | 45 | 3.0 | 4.0 | 0.00 | 0.00 | 0.00 | 73 | 1014.2 |
| 20260506131137 | 70 | 90 | 3.0 | 4.0 | 0.00 | 0.00 | 0.00 | 74 | 1014.2 |
| 20260506130940 | 70 | 112 | 2.0 | 4.0 | 0.00 | 0.00 | 0.00 | 72 | 1014.2 |
| 20260506130540 | 71 | 68 | 4.0 | 6.0 | 0.00 | 0.00 | 0.00 | 71 | 1014.2 |
| 20260506130338 | 71 | 90 | 2.0 | 7.0 | 0.00 | 0.00 | 0.00 | 71 | 1014.3 |
| 20260506130137 | 70 | 90 | 2.0 | 2.0 | 0.00 | 0.00 | 0.00 | 73 | 1014.5 |
| 20260506125939 | 69 | 112 | 4.0 | 7.0 | 0.00 | 0.00 | 0.00 | 72 | 1014.4 |
| 20260506125737 | 69 | 135 | 4.0 | 7.0 | 0.00 | 0.00 | 0.00 | 73 | 1014.4 |
| 20260506125337 | 68 | 158 | 3.0 | 6.0 | 0.00 | 0.00 | 0.00 | 76 | 1014.2 |
| 20260506125137 | 68 | 68 | 4.0 | 6.0 | 0.00 | 0.00 | 0.00 | 77 | 1014.2 |
| 20260506124939 | 68 | 112 | 5.0 | 8.0 | 0.00 | 0.00 | 0.00 | 77 | 1014.1 |
| 20260506124738 | 68 | 90 | 5.0 | 8.0 | 0.00 | 0.00 | 0.00 | 75 | 1014.2 |
| 20260506124543 | 68 | 112 | 4.0 | 6.0 | 0.00 | 0.00 | 0.00 | 76 | 1014.4 |
| 20260506124338 | 69 | 112 | 3.0 | 4.0 | 0.00 | 0.00 | 0.00 | 75 | 1014.3 |
| 20260506123941 | 69 | 112 | 4.0 | 8.0 | 0.00 | 0.00 | 0.00 | 75 | 1014.3 |
| 20260506123540 | 68 | 112 | 2.0 | 4.0 | 0.00 | 0.00 | 0.00 | 76 | 1014.3 |
| 20260506123337 | 68 | 90 | 3.0 | 4.0 | 0.00 | 0.00 | 0.00 | 77 | 1014.4 |
| 20260506123139 | 68 | 90 | 4.0 | 6.0 | 0.00 | 0.00 | 0.00 | 76 | 1014.6 |
| 20260506122938 | 68 | 112 | 4.0 | 8.0 | 0.00 | 0.00 | 0.00 | 77 | 1014.6 |
| 20260506122737 | 68 | 135 | 2.0 | 4.0 | 0.00 | 0.00 | 0.00 | 77 | 1014.4 |
| 20260506122543 | 68 | 135 | 3.0 | 4.0 | 0.00 | 0.00 | 0.00 | 76 | 1014.5 |
| 20260506122338 | 68 | 68 | 4.0 | 7.0 | 0.00 | 0.00 | 0.00 | 77 | 1014.4 |
| 20260506122137 | 68 | 112 | 2.0 | 4.0 | 0.00 | 0.00 | 0.00 | 78 | 1014.4 |
| 20260506121939 | 68 | 45 | 4.0 | 6.0 | 0.00 | 0.00 | 0.00 | 78 | 1014.6 |
| 20260506121737 | 68 | 68 | 3.0 | 6.0 | 0.00 | 0.00 | 0.00 | 78 | 1014.5 |
| 20260506121339 | 68 | 90 | 2.0 | 6.0 | 0.00 | 0.00 | 0.00 | 79 | 1014.3 |
| 20260506121137 | 68 | 112 | 4.0 | 7.0 | 0.00 | 0.00 | 0.00 | 78 | 1014.4 |
| 20260506120941 | 68 | 112 | 4.0 | 7.0 | 0.00 | 0.00 | 0.00 | 78 | 1014.5 |
| 20260506120540 | 69 | 90 | 2.0 | 6.0 | 0.00 | 0.00 | 0.00 | 76 | 1014.4 |
| 20260506120337 | 69 | 90 | 2.0 | 6.0 | 0.00 | 0.00 | 0.00 | 76 | 1014.4 |
| 20260506120137 | 69 | 90 | 2.0 | 6.0 | 0.00 | 0.00 | 0.00 | 76 | 1014.5 |
| 20260506115939 | 69 | 90 | 2.0 | 4.0 | 0.00 | 0.00 | 0.00 | 75 | 1014.4 |
| 20260506115737 | 69 | 90 | 1.0 | 2.0 | 0.00 | 0.00 | 0.00 | 74 | 1014.4 |
| 20260506115541 | 69 | 45 | 2.0 | 2.0 | 0.00 | 0.00 | 0.00 | 75 | 1014.3 |
| 20260506115337 | 69 | 90 | 1.0 | 2.0 | 0.00 | 0.00 | 0.00 | 75 | 1014.5 |
| 20260506115137 | 70 | 45 | 2.0 | 4.0 | 0.00 | 0.00 | 0.00 | 75 | 1014.4 |
| 20260506114940 | 70 | 112 | 2.0 | 4.0 | 0.00 | 0.00 | 0.00 | 74 | 1014.2 |
| 20260506114737 | 69 | 270 | 1.0 | 2.0 | 0.00 | 0.00 | 0.00 | 75 | 1014.4 |
| 20260506114544 | 69 | 248 | 1.0 | 2.0 | 0.00 | 0.00 | 0.00 | 75 | 1014.4 |
| 20260506114339 | 69 | 90 | 2.0 | 2.0 | 0.00 | 0.00 | 0.00 | 75 | 1014.3 |
| 20260506113940 | 69 | 68 | 2.0 | 2.0 | 0.00 | 0.00 | 0.00 | 76 | 1014.4 |
| 20260506113737 | 69 | 292 | 0.0 | 0.0 | 0.00 | 0.00 | 0.00 | 78 | 1014.4 |
| 20260506113540 | 68 | 135 | 3.0 | 4.0 | 0.00 | 0.00 | 0.00 | 76 | 1014.2 |
| 20260506113337 | 68 | 158 | 1.0 | 2.0 | 0.00 | 0.00 | 0.00 | 77 | 1014.4 |
| 20260506113138 | 68 | 45 | 2.0 | 2.0 | 0.00 | 0.00 | 0.00 | 78 | 1014.5 |
| 20260506112939 | 67 | 90 | 2.0 | 4.0 | 0.00 | 0.00 | 0.00 | 78 | 1014.5 |
| 20260506112738 | 67 | 68 | 4.0 | 6.0 | 0.00 | 0.00 | 0.00 | 79 | 1014.5 |
| 20260506112543 | 67 | 22 | 2.0 | 4.0 | 0.00 | 0.00 | 0.00 | 79 | 1014.4 |
| 20260506112338 | 67 | 22 | 2.0 | 2.0 | 0.00 | 0.00 | 0.00 | 80 | 1014.3 |
| 20260506112137 | 67 | 22 | 1.0 | 2.0 | 0.00 | 0.00 | 0.00 | 80 | 1014.5 |
| 20260506111543 | 66 | 90 | 2.0 | 2.0 | 0.00 | 0.00 | 0.00 | 82 | 1014.4 |
| 20260506111138 | 66 | 90 | 2.0 | 4.0 | 0.00 | 0.00 | 0.00 | 82 | 1014.7 |
| 20260506110738 | 66 | 68 | 2.0 | 2.0 | 0.00 | 0.00 | 0.00 | 82 | 1014.7 |
| 20260506110541 | 66 | 68 | 2.0 | 4.0 | 0.00 | 0.00 | 0.00 | 82 | 1014.7 |
| 20260506110337 | 66 | 90 | 3.0 | 4.0 | 0.00 | 0.00 | 0.00 | 82 | 1014.6 |
| 20260506105738 | 66 | 68 | 3.0 | 6.0 | 0.00 | 0.00 | 0.00 | 83 | 1014.7 |
| 20260506105543 | 65 | 45 | 3.0 | 4.0 | 0.00 | 0.00 | 0.00 | 83 | 1014.7 |
| 20260506105337 | 65 | 90 | 3.0 | 4.0 | 0.00 | 0.00 | 0.00 | 83 | 1014.6 |
| 20260506105138 | 66 | 68 | 3.0 | 6.0 | 0.00 | 0.00 | 0.00 | 83 | 1014.8 |
| 20260506104543 | 65 | 68 | 4.0 | 6.0 | 0.00 | 0.00 | 0.00 | 83 | 1014.8 |
| 20260506104338 | 65 | 22 | 5.0 | 8.0 | 0.00 | 0.00 | 0.00 | 82 | 1014.8 |
| 20260506104137 | 65 | 0 | 4.0 | 7.0 | 0.00 | 0.00 | 0.00 | 82 | 1014.8 |
| 20260506103941 | 66 | 68 | 5.0 | 7.0 | 0.00 | 0.00 | 0.00 | 82 | 1014.8 |
| 20260506103738 | 66 | 45 | 4.0 | 7.0 | 0.00 | 0.00 | 0.00 | 82 | 1014.6 |
| 20260506103540 | 65 | 45 | 2.0 | 4.0 | 0.00 | 0.00 | 0.00 | 82 | 1014.8 |
| 20260506103336 | 65 | 112 | 7.0 | 9.0 | 0.00 | 0.00 | 0.00 | 82 | 1014.8 |
| 20260506102738 | 65 | 45 | 6.0 | 9.0 | 0.00 | 0.00 | 0.00 | 81 | 1014.8 |
| 20260506102544 | 65 | 90 | 5.0 | 11.0 | 0.00 | 0.00 | 0.00 | 81 | 1014.6 |
| 20260506102338 | 66 | 45 | 6.0 | 9.0 | 0.00 | 0.00 | 0.00 | 81 | 1014.8 |
| 20260506102137 | 66 | 45 | 7.0 | 9.0 | 0.00 | 0.00 | 0.00 | 81 | 1014.8 |
| 20260506101937 | 66 | 68 | 7.0 | 11.0 | 0.00 | 0.00 | 0.00 | 80 | 1014.9 |
| 20260506101738 | 66 | 68 | 5.0 | 11.0 | 0.00 | 0.00 | 0.00 | 80 | 1014.9 |
| 20260506101545 | 66 | 45 | 4.0 | 9.0 | 0.00 | 0.00 | 0.00 | 80 | 1014.8 |
| 20260506101337 | 67 | 45 | 8.0 | 11.0 | 0.00 | 0.00 | 0.00 | 79 | 1014.9 |
| 20260506101138 | 67 | 68 | 4.0 | 7.0 | 0.00 | 0.00 | 0.00 | 79 | 1015.0 |
| 20260506100939 | 67 | 22 | 4.0 | 8.0 | 0.00 | 0.00 | 0.00 | 78 | 1015.1 |
| 20260506100737 | 67 | 90 | 4.0 | 7.0 | 0.00 | 0.00 | 0.00 | 79 | 1014.9 |
| 20260506100541 | 67 | 45 | 4.0 | 7.0 | 0.00 | 0.00 | 0.00 | 78 | 1015.0 |
| 20260506100338 | 67 | 68 | 4.0 | 6.0 | 0.00 | 0.00 | 0.00 | 78 | 1015.1 |
| 20260506100138 | 67 | 68 | 3.0 | 4.0 | 0.00 | 0.00 | 0.00 | 78 | 1015.1 |
| 20260506095938 | 67 | 45 | 4.0 | 7.0 | 0.00 | 0.00 | 0.00 | 78 | 1015.1 |
| 20260506095544 | 67 | 45 | 4.0 | 6.0 | 0.00 | 0.00 | 0.00 | 78 | 1015.4 |
| 20260506095338 | 67 | 112 | 4.0 | 8.0 | 0.00 | 0.00 | 0.00 | 78 | 1015.1 |
| 20260506095139 | 67 | 45 | 4.0 | 7.0 | 0.00 | 0.00 | 0.00 | 78 | 1015.3 |
| 20260506094938 | 67 | 22 | 4.0 | 8.0 | 0.00 | 0.00 | 0.00 | 78 | 1015.0 |
| 20260506094736 | 67 | 68 | 4.0 | 4.0 | 0.00 | 0.00 | 0.00 | 77 | 1015.0 |
| 20260506094544 | 68 | 68 | 5.0 | 8.0 | 0.00 | 0.00 | 0.00 | 77 | 1015.1 |
| 20260506093939 | 67 | 45 | 3.0 | 7.0 | 0.00 | 0.00 | 0.00 | 76 | 1015.0 |
| 20260506093737 | 67 | 45 | 4.0 | 7.0 | 0.00 | 0.00 | 0.00 | 76 | 1014.9 |
| 20260506093540 | 67 | 45 | 4.0 | 6.0 | 0.00 | 0.00 | 0.00 | 77 | 1014.9 |
| 20260506093338 | 67 | 22 | 4.0 | 6.0 | 0.00 | 0.00 | 0.00 | 77 | 1015.1 |
| 20260506093137 | 67 | 45 | 4.0 | 8.0 | 0.00 | 0.00 | 0.00 | 77 | 1014.8 |
| 20260506092937 | 67 | 45 | 4.0 | 9.0 | 0.00 | 0.00 | 0.00 | 78 | 1015.0 |
| 20260506092736 | 67 | 22 | 4.0 | 8.0 | 0.00 | 0.00 | 0.00 | 78 | 1014.9 |
| 20260506092545 | 67 | 45 | 5.0 | 9.0 | 0.00 | 0.00 | 0.00 | 78 | 1014.9 |
| 20260506092337 | 67 | 0 | 4.0 | 7.0 | 0.00 | 0.00 | 0.00 | 78 | 1014.8 |
| 20260506092137 | 67 | 45 | 4.0 | 7.0 | 0.00 | 0.00 | 0.00 | 78 | 1015.0 |
| 20260506091937 | 67 | 22 | 3.0 | 6.0 | 0.00 | 0.00 | 0.00 | 78 | 1015.0 |
| 20260506091737 | 67 | 22 | 4.0 | 6.0 | 0.00 | 0.00 | 0.00 | 78 | 1015.0 |
| 20260506091544 | 67 | 90 | 3.0 | 4.0 | 0.00 | 0.00 | 0.00 | 78 | 1015.0 |
| 20260506091338 | 67 | 90 | 3.0 | 7.0 | 0.00 | 0.00 | 0.00 | 78 | 1015.1 |
| 20260506091137 | 67 | 45 | 4.0 | 7.0 | 0.00 | 0.00 | 0.00 | 77 | 1015.2 |
| 20260506090939 | 67 | 45 | 3.0 | 6.0 | 0.00 | 0.00 | 0.00 | 77 | 1015.0 |
| 20260506090737 | 68 | 22 | 5.0 | 7.0 | 0.00 | 0.00 | 0.00 | 76 | 1015.1 |
| 20260506090541 | 68 | 315 | 4.0 | 6.0 | 0.00 | 0.00 | 0.00 | 77 | 1015.0 |
| 20260506090136 | 68 | 0 | 3.0 | 4.0 | 0.00 | 0.00 | 0.00 | 77 | 1015.1 |
| 20260506085937 | 68 | 45 | 3.0 | 6.0 | 0.00 | 0.00 | 0.00 | 76 | 1015.2 |
| 20260506085737 | 68 | 68 | 4.0 | 7.0 | 0.00 | 0.00 | 0.00 | 76 | 1015.0 |
| 20260506085337 | 68 | 45 | 3.0 | 4.0 | 0.00 | 0.00 | 0.00 | 76 | 1015.0 |
| 20260506085137 | 68 | 45 | 3.0 | 7.0 | 0.00 | 0.00 | 0.00 | 76 | 1015.0 |
| 20260506084940 | 68 | 68 | 4.0 | 7.0 | 0.00 | 0.00 | 0.00 | 76 | 1015.1 |
| 20260506084738 | 68 | 45 | 2.0 | 6.0 | 0.00 | 0.00 | 0.00 | 77 | 1015.1 |
| 20260506084544 | 67 | 0 | 1.0 | 2.0 | 0.00 | 0.00 | 0.00 | 78 | 1015.0 |
| 20260506084336 | 67 | 22 | 4.0 | 6.0 | 0.00 | 0.00 | 0.00 | 78 | 1014.9 |
| 20260506083136 | 66 | 68 | 2.0 | 4.0 | 0.00 | 0.00 | 0.00 | 80 | 1014.9 |
| 20260506082937 | 66 | 90 | 4.0 | 6.0 | 0.00 | 0.00 | 0.00 | 80 | 1014.9 |
| 20260506082736 | 67 | 68 | 5.0 | 7.0 | 0.00 | 0.00 | 0.00 | 79 | 1014.8 |
| 20260506082336 | 66 | 22 | 2.0 | 4.0 | 0.00 | 0.00 | 0.00 | 80 | 1014.8 |
| 20260506082137 | 66 | 68 | 4.0 | 7.0 | 0.00 | 0.00 | 0.00 | 81 | 1014.9 |
| 20260506081938 | 67 | 68 | 5.0 | 7.0 | 0.00 | 0.00 | 0.00 | 80 | 1014.8 |
| 20260506081736 | 67 | 45 | 4.0 | 6.0 | 0.00 | 0.00 | 0.00 | 80 | 1014.6 |
| 20260506081543 | 67 | 338 | 2.0 | 4.0 | 0.00 | 0.00 | 0.00 | 80 | 1014.8 |
| 20260506081338 | 67 | 68 | 4.0 | 7.0 | 0.00 | 0.00 | 0.00 | 80 | 1014.7 |
| 20260506081137 | 67 | 68 | 2.0 | 4.0 | 0.00 | 0.00 | 0.00 | 80 | 1014.6 |
| 20260506080940 | 67 | 68 | 3.0 | 4.0 | 0.00 | 0.00 | 0.00 | 80 | 1014.8 |
| 20260506080736 | 67 | 135 | 2.0 | 4.0 | 0.00 | 0.00 | 0.00 | 81 | 1014.6 |
| 20260506080540 | 67 | 68 | 4.0 | 4.0 | 0.00 | 0.00 | 0.00 | 80 | 1014.5 |
| 20260506080138 | 67 | 68 | 3.0 | 4.0 | 0.00 | 0.00 | 0.00 | 80 | 1014.6 |
| 20260506073138 | 67 | 45 | 2.0 | 4.0 | 0.00 | 0.00 | 0.00 | 80 | 1014.4 |
| 20260506072937 | 67 | 90 | 2.0 | 4.0 | 0.00 | 0.00 | 0.00 | 81 | 1014.5 |
| 20260506072738 | 67 | 22 | 3.0 | 6.0 | 0.00 | 0.00 | 0.00 | 81 | 1014.5 |
| 20260506072544 | 67 | 90 | 3.0 | 6.0 | 0.00 | 0.00 | 0.00 | 81 | 1014.5 |
| 20260506072338 | 66 | 22 | 3.0 | 4.0 | 0.00 | 0.00 | 0.00 | 82 | 1014.3 |
| 20260506072137 | 66 | 22 | 2.0 | 4.0 | 0.00 | 0.00 | 0.00 | 82 | 1014.6 |
| 20260506071938 | 66 | 45 | 4.0 | 6.0 | 0.00 | 0.00 | 0.00 | 82 | 1014.4 |
| 20260506071544 | 66 | 22 | 2.0 | 4.0 | 0.00 | 0.00 | 0.00 | 82 | 1014.7 |
| 20260506071138 | 66 | 45 | 4.0 | 6.0 | 0.00 | 0.00 | 0.00 | 83 | 1014.5 |
| 20260506070940 | 66 | 0 | 2.0 | 6.0 | 0.00 | 0.00 | 0.00 | 83 | 1014.5 |
| 20260506070737 | 66 | 22 | 2.0 | 4.0 | 0.00 | 0.00 | 0.00 | 83 | 1014.8 |
| 20260506070339 | 66 | 22 | 1.0 | 4.0 | 0.00 | 0.00 | 0.00 | 84 | 1014.8 |
| 20260506070137 | 66 | 22 | 4.0 | 6.0 | 0.00 | 0.00 | 0.00 | 84 | 1014.4 |
| 20260506062338 | 64 | 0 | 1.0 | 2.0 | 0.00 | 0.00 | 0.00 | 93 | 1014.7 |
| 20260506062138 | 64 | 22 | 2.0 | 2.0 | 0.00 | 0.00 | 0.00 | 93 | 1014.5 |
| 20260506061938 | 63 | 0 | 0.0 | 0.0 | 0.00 | 0.00 | 0.00 | 93 | 1014.6 |
| 20260506061543 | 63 | 0 | 1.0 | 2.0 | 0.00 | 0.00 | 0.00 | 93 | 1014.4 |
| 20260506061337 | 63 | 315 | 1.0 | 2.0 | 0.00 | 0.00 | 0.00 | 93 | 1014.6 |
| 20260506061138 | 63 | 0 | 1.0 | 2.0 | 0.00 | 0.00 | 0.00 | 93 | 1014.5 |
| 20260506060939 | 63 | 338 | 1.0 | 2.0 | 0.00 | 0.00 | 0.00 | 93 | 1014.6 |
| 20260506060737 | 63 | 338 | 1.0 | 2.0 | 0.00 | 0.00 | 0.00 | 94 | 1014.7 |
| 20260506060339 | 63 | 338 | 1.0 | 2.0 | 0.00 | 0.00 | 0.00 | 94 | 1014.7 |
| 20260506060138 | 63 | 338 | 1.0 | 2.0 | 0.00 | 0.00 | 0.00 | 94 | 1014.5 |
| 20260506051139 | 62 | 0 | 0.0 | 2.0 | 0.00 | 0.00 | 0.00 | 94 | 1014.1 |
| 20260506050737 | 61 | 0 | 1.0 | 2.0 | 0.00 | 0.00 | 0.00 | 94 | 1014.0 |
| 20260506050542 | 61 | 338 | 0.0 | 0.0 | 0.00 | 0.00 | 0.00 | 94 | 1014.3 |
| 20260506050338 | 61 | 338 | 1.0 | 2.0 | 0.00 | 0.00 | 0.00 | 94 | 1014.1 |
| 20260506050143 | 61 | 0 | 1.0 | 2.0 | 0.00 | 0.00 | 0.00 | 94 | 1014.2 |
| 20260506044939 | 61 | 338 | 0.0 | 0.0 | 0.00 | 0.00 | 0.00 | 94 | 1014.3 |
| 20260506044738 | 61 | 338 | 0.0 | 0.0 | 0.00 | 0.00 | 0.00 | 94 | 1014.4 |
| 20260506044544 | 61 | 338 | 0.0 | 0.0 | 0.00 | 0.00 | 0.00 | 94 | 1014.1 |
| 20260506044338 | 61 | 338 | 0.0 | 0.0 | 0.00 | 0.00 | 0.00 | 94 | 1014.4 |
| 20260506044138 | 61 | 338 | 0.0 | 0.0 | 0.00 | 0.00 | 0.00 | 94 | 1014.1 |
| 20260506043939 | 61 | 338 | 0.0 | 0.0 | 0.00 | 0.00 | 0.00 | 94 | 1014.2 |
| 20260506043738 | 61 | 338 | 0.0 | 0.0 | 0.00 | 0.00 | 0.00 | 94 | 1014.3 |
| 20260506043540 | 61 | 338 | 0.0 | 0.0 | 0.00 | 0.00 | 0.00 | 94 | 1013.9 |
| 20260506043336 | 61 | 338 | 0.0 | 0.0 | 0.00 | 0.00 | 0.00 | 94 | 1014.2 |
| 20260506043136 | 61 | 338 | 0.0 | 2.0 | 0.00 | 0.00 | 0.00 | 94 | 1014.0 |
| 20260506042545 | 61 | 338 | 0.0 | 0.0 | 0.00 | 0.00 | 0.00 | 94 | 1014.1 |
| 20260506042336 | 61 | 338 | 0.0 | 0.0 | 0.00 | 0.00 | 0.00 | 94 | 1014.1 |
| 20260506041938 | 60 | 338 | 1.0 | 2.0 | 0.00 | 0.00 | 0.00 | 94 | 1014.2 |
| 20260506041759 | 60 | 338 | 0.0 | 0.0 | 0.00 | 0.00 | 0.00 | 94 | 1014.1 |
| 20260506041544 | 60 | 338 | 1.0 | 2.0 | 0.00 | 0.00 | 0.00 | 94 | 1014.1 |
| 20260506041338 | 60 | 338 | 0.0 | 2.0 | 0.00 | 0.00 | 0.00 | 94 | 1014.1 |
| 20260506041138 | 60 | 315 | 0.0 | 0.0 | 0.00 | 0.00 | 0.00 | 94 | 1014.1 |
| 20260506040940 | 60 | 315 | 0.0 | 0.0 | 0.00 | 0.00 | 0.00 | 94 | 1014.3 |
| 20260506040737 | 60 | 315 | 0.0 | 0.0 | 0.00 | 0.00 | 0.00 | 94 | 1014.1 |
| 20260506040541 | 60 | 315 | 0.0 | 0.0 | 0.00 | 0.00 | 0.00 | 94 | 1014.0 |
| 20260506040337 | 60 | 315 | 0.0 | 0.0 | 0.00 | 0.00 | 0.00 | 94 | 1014.0 |
| 20260506040138 | 60 | 315 | 0.0 | 0.0 | 0.00 | 0.00 | 0.00 | 94 | 1013.9 |
| 20260506035938 | 60 | 315 | 0.0 | 0.0 | 0.00 | 0.00 | 0.00 | 94 | 1014.1 |
| 20260506035738 | 60 | 315 | 0.0 | 0.0 | 0.00 | 0.00 | 0.00 | 94 | 1014.1 |
| 20260506035544 | 60 | 315 | 0.0 | 0.0 | 0.00 | 0.00 | 0.00 | 94 | 1014.1 |
| 20260506035338 | 60 | 315 | 0.0 | 0.0 | 0.00 | 0.00 | 0.00 | 94 | 1014.1 |
| 20260506035137 | 60 | 315 | 0.0 | 0.0 | 0.00 | 0.00 | 0.00 | 94 | 1013.9 |
| 20260506034937 | 60 | 315 | 0.0 | 0.0 | 0.00 | 0.00 | 0.00 | 94 | 1013.9 |
| 20260506034542 | 61 | 338 | 0.0 | 0.0 | 0.00 | 0.00 | 0.00 | 94 | 1013.9 |
| 20260506034337 | 61 | 338 | 1.0 | 2.0 | 0.00 | 0.00 | 0.00 | 94 | 1014.1 |
| 20260506034137 | 60 | 338 | 0.0 | 2.0 | 0.00 | 0.00 | 0.00 | 94 | 1013.9 |
| 20260506033939 | 60 | 338 | 0.0 | 0.0 | 0.00 | 0.00 | 0.00 | 94 | 1014.1 |
| 20260506033541 | 61 | 338 | 0.0 | 0.0 | 0.00 | 0.00 | 0.00 | 94 | 1013.9 |
| 20260506033337 | 61 | 338 | 0.0 | 0.0 | 0.00 | 0.00 | 0.00 | 94 | 1013.8 |
| 20260506033138 | 61 | 338 | 0.0 | 0.0 | 0.00 | 0.00 | 0.00 | 94 | 1014.1 |
| 20260506032939 | 61 | 338 | 0.0 | 0.0 | 0.00 | 0.00 | 0.00 | 94 | 1013.8 |
| 20260506032543 | 61 | 338 | 0.0 | 0.0 | 0.00 | 0.00 | 0.00 | 94 | 1014.1 |
| 20260506032337 | 61 | 338 | 0.0 | 0.0 | 0.00 | 0.00 | 0.00 | 94 | 1014.0 |
| 20260506032136 | 61 | 338 | 0.0 | 0.0 | 0.00 | 0.00 | 0.00 | 94 | 1013.9 |
| 20260506031937 | 61 | 338 | 0.0 | 2.0 | 0.00 | 0.00 | 0.00 | 94 | 1013.9 |
| 20260506031737 | 61 | 338 | 1.0 | 2.0 | 0.00 | 0.00 | 0.00 | 94 | 1014.2 |
| 20260506031541 | 61 | 338 | 0.0 | 0.0 | 0.00 | 0.00 | 0.00 | 94 | 1014.0 |
| 20260506031337 | 61 | 338 | 0.0 | 0.0 | 0.00 | 0.00 | 0.00 | 94 | 1014.0 |
| 20260506031137 | 61 | 338 | 0.0 | 0.0 | 0.00 | 0.00 | 0.00 | 94 | 1014.0 |
| 20260506030939 | 61 | 338 | 0.0 | 2.0 | 0.00 | 0.00 | 0.00 | 94 | 1014.0 |
| 20260506030737 | 61 | 338 | 0.0 | 2.0 | 0.00 | 0.00 | 0.00 | 94 | 1014.1 |
| 20260506030541 | 61 | 338 | 1.0 | 2.0 | 0.00 | 0.00 | 0.00 | 94 | 1014.0 |
| 20260506030337 | 61 | 338 | 2.0 | 2.0 | 0.00 | 0.00 | 0.00 | 94 | 1014.0 |
| 20260506030138 | 61 | 338 | 0.0 | 2.0 | 0.00 | 0.00 | 0.00 | 94 | 1014.1 |
| 20260506025937 | 61 | 338 | 1.0 | 2.0 | 0.00 | 0.00 | 0.00 | 94 | 1013.9 |
| 20260506025737 | 61 | 338 | 0.0 | 2.0 | 0.00 | 0.00 | 0.00 | 94 | 1013.9 |
| 20260506025337 | 61 | 338 | 0.0 | 2.0 | 0.00 | 0.00 | 0.00 | 94 | 1014.1 |
| 20260506025136 | 61 | 338 | 1.0 | 2.0 | 0.00 | 0.00 | 0.00 | 94 | 1014.1 |
| 20260506024938 | 61 | 338 | 1.0 | 2.0 | 0.00 | 0.00 | 0.00 | 94 | 1014.1 |
| 20260506024737 | 61 | 338 | 1.0 | 2.0 | 0.00 | 0.00 | 0.00 | 94 | 1014.2 |
| 20260506024336 | 61 | 338 | 0.0 | 2.0 | 0.00 | 0.00 | 0.00 | 94 | 1014.2 |
| 20260506024138 | 61 | 338 | 0.0 | 0.0 | 0.00 | 0.00 | 0.00 | 94 | 1014.1 |
| 20260506023940 | 61 | 338 | 0.0 | 0.0 | 0.00 | 0.00 | 0.00 | 94 | 1014.1 |
| 20260506023539 | 61 | 338 | 0.0 | 0.0 | 0.00 | 0.00 | 0.00 | 94 | 1014.2 |
| 20260506023338 | 61 | 315 | 0.0 | 0.0 | 0.00 | 0.00 | 0.00 | 94 | 1014.2 |
| 20260506023137 | 61 | 338 | 0.0 | 0.0 | 0.00 | 0.00 | 0.00 | 94 | 1014.4 |
| 20260506022938 | 61 | 338 | 0.0 | 0.0 | 0.00 | 0.00 | 0.00 | 94 | 1014.3 |
| 20260506022737 | 61 | 338 | 1.0 | 2.0 | 0.00 | 0.00 | 0.00 | 94 | 1014.2 |
| 20260506022544 | 61 | 315 | 1.0 | 2.0 | 0.00 | 0.00 | 0.00 | 94 | 1014.2 |
| 20260506022338 | 61 | 338 | 0.0 | 2.0 | 0.00 | 0.00 | 0.00 | 94 | 1014.2 |
| 20260506022137 | 61 | 338 | 0.0 | 0.0 | 0.00 | 0.00 | 0.00 | 94 | 1014.2 |
| 20260506021938 | 61 | 338 | 0.0 | 2.0 | 0.00 | 0.00 | 0.00 | 94 | 1014.2 |
| 20260506021737 | 61 | 338 | 0.0 | 0.0 | 0.00 | 0.00 | 0.00 | 94 | 1014.1 |
| 20260506021542 | 61 | 0 | 0.0 | 0.0 | 0.00 | 0.00 | 0.00 | 94 | 1014.3 |
| 20260506021338 | 61 | 0 | 0.0 | 0.0 | 0.00 | 0.00 | 0.00 | 94 | 1014.1 |
| 20260506020939 | 61 | 315 | 0.0 | 2.0 | 0.00 | 0.00 | 0.00 | 94 | 1014.1 |
| 20260506020738 | 61 | 315 | 0.0 | 0.0 | 0.00 | 0.00 | 0.00 | 94 | 1014.3 |
| 20260506020541 | 61 | 315 | 1.0 | 2.0 | 0.00 | 0.00 | 0.00 | 94 | 1014.2 |
| 20260506020338 | 61 | 315 | 0.0 | 0.0 | 0.00 | 0.00 | 0.00 | 94 | 1014.2 |
| 20260506020139 | 61 | 315 | 0.0 | 0.0 | 0.00 | 0.00 | 0.00 | 94 | 1014.3 |
| 20260506015937 | 61 | 315 | 1.0 | 2.0 | 0.00 | 0.00 | 0.00 | 94 | 1014.3 |
| 20260506015737 | 61 | 315 | 0.0 | 0.0 | 0.00 | 0.00 | 0.00 | 94 | 1014.3 |
| 20260506015543 | 61 | 315 | 0.0 | 0.0 | 0.00 | 0.00 | 0.00 | 94 | 1014.3 |
| 20260506015338 | 61 | 315 | 0.0 | 2.0 | 0.00 | 0.00 | 0.00 | 94 | 1014.3 |
| 20260506015137 | 61 | 315 | 0.0 | 2.0 | 0.00 | 0.00 | 0.00 | 94 | 1014.0 |
| 20260506014941 | 61 | 315 | 0.0 | 2.0 | 0.00 | 0.00 | 0.00 | 94 | 1014.2 |
| 20260506014737 | 61 | 315 | 0.0 | 2.0 | 0.00 | 0.00 | 0.00 | 93 | 1014.3 |
| 20260506014544 | 61 | 315 | 1.0 | 2.0 | 0.00 | 0.00 | 0.00 | 94 | 1014.3 |
| 20260506014337 | 61 | 315 | 0.0 | 0.0 | 0.00 | 0.00 | 0.00 | 93 | 1014.3 |
| 20260506014137 | 61 | 315 | 1.0 | 2.0 | 0.00 | 0.00 | 0.00 | 94 | 1014.1 |
| 20260506013939 | 61 | 292 | 1.0 | 2.0 | 0.00 | 0.00 | 0.00 | 93 | 1014.4 |
| 20260506013737 | 61 | 292 | 1.0 | 2.0 | 0.00 | 0.00 | 0.00 | 94 | 1014.3 |
| 20260506013540 | 61 | 292 | 1.0 | 2.0 | 0.00 | 0.00 | 0.00 | 94 | 1014.2 |
| 20260506013337 | 61 | 292 | 0.0 | 2.0 | 0.00 | 0.00 | 0.00 | 93 | 1014.3 |
| 20260506013139 | 61 | 315 | 0.0 | 0.0 | 0.00 | 0.00 | 0.00 | 93 | 1014.3 |
| 20260506012938 | 60 | 315 | 1.0 | 2.0 | 0.00 | 0.00 | 0.00 | 93 | 1014.1 |
| 20260506012738 | 60 | 315 | 1.0 | 2.0 | 0.00 | 0.00 | 0.00 | 93 | 1014.3 |
| 20260506012545 | 60 | 315 | 1.0 | 2.0 | 0.00 | 0.00 | 0.00 | 93 | 1014.1 |
| 20260506012338 | 60 | 315 | 1.0 | 2.0 | 0.00 | 0.00 | 0.00 | 93 | 1014.3 |
| 20260506012137 | 60 | 315 | 0.0 | 0.0 | 0.00 | 0.00 | 0.00 | 93 | 1014.1 |
| 20260506011938 | 60 | 338 | 0.0 | 0.0 | 0.00 | 0.00 | 0.00 | 93 | 1014.3 |
| 20260506011738 | 60 | 338 | 0.0 | 0.0 | 0.00 | 0.00 | 0.00 | 93 | 1014.0 |
| 20260506011336 | 60 | 338 | 0.0 | 0.0 | 0.00 | 0.00 | 0.00 | 93 | 1014.2 |
| 20260506011138 | 60 | 338 | 0.0 | 0.0 | 0.00 | 0.00 | 0.00 | 93 | 1014.0 |
| 20260506010938 | 60 | 338 | 0.0 | 0.0 | 0.00 | 0.00 | 0.00 | 93 | 1014.2 |
| 20260506010540 | 60 | 338 | 0.0 | 0.0 | 0.00 | 0.00 | 0.00 | 93 | 1014.2 |
| 20260506010337 | 60 | 338 | 0.0 | 0.0 | 0.00 | 0.00 | 0.00 | 93 | 1014.1 |
| 20260506010141 | 60 | 0 | 0.0 | 0.0 | 0.00 | 0.00 | 0.00 | 93 | 1014.1 |
| 20260506005937 | 60 | 338 | 0.0 | 0.0 | 0.00 | 0.00 | 0.00 | 93 | 1014.0 |
| 20260506005738 | 60 | 0 | 0.0 | 0.0 | 0.00 | 0.00 | 0.00 | 93 | 1013.9 |
| 20260506005338 | 60 | 315 | 0.0 | 0.0 | 0.00 | 0.00 | 0.00 | 93 | 1014.1 |
| 20260506005138 | 60 | 315 | 0.0 | 0.0 | 0.00 | 0.00 | 0.00 | 93 | 1014.1 |
| 20260506004939 | 60 | 315 | 0.0 | 0.0 | 0.00 | 0.00 | 0.00 | 93 | 1014.1 |
| 20260506004738 | 60 | 292 | 0.0 | 0.0 | 0.00 | 0.00 | 0.00 | 93 | 1014.2 |
| 20260506004545 | 60 | 292 | 0.0 | 0.0 | 0.00 | 0.00 | 0.00 | 93 | 1014.1 |
| 20260506004137 | 60 | 315 | 0.0 | 0.0 | 0.00 | 0.00 | 0.00 | 93 | 1014.4 |
| 20260506003939 | 60 | 315 | 0.0 | 0.0 | 0.00 | 0.00 | 0.00 | 93 | 1014.2 |
| 20260506003738 | 60 | 315 | 0.0 | 0.0 | 0.00 | 0.00 | 0.00 | 93 | 1014.4 |
| 20260506003541 | 60 | 315 | 0.0 | 0.0 | 0.00 | 0.00 | 0.00 | 93 | 1014.4 |
| 20260506003338 | 60 | 315 | 0.0 | 0.0 | 0.00 | 0.00 | 0.00 | 93 | 1014.2 |
| 20260506003138 | 60 | 315 | 0.0 | 0.0 | 0.00 | 0.00 | 0.00 | 93 | 1014.4 |
| 20260506002937 | 60 | 315 | 0.0 | 0.0 | 0.00 | 0.00 | 0.00 | 93 | 1014.4 |
| 20260506002543 | 61 | 315 | 0.0 | 0.0 | 0.00 | 0.00 | 0.00 | 93 | 1014.4 |
| 20260506002339 | 61 | 315 | 0.0 | 0.0 | 0.00 | 0.00 | 0.00 | 93 | 1014.4 |
| 20260506002137 | 61 | 315 | 0.0 | 0.0 | 0.00 | 0.00 | 0.00 | 93 | 1014.3 |
| 20260506001938 | 61 | 315 | 0.0 | 0.0 | 0.00 | 0.00 | 0.00 | 93 | 1014.2 |
| 20260506001739 | 61 | 315 | 0.0 | 0.0 | 0.00 | 0.00 | 0.00 | 93 | 1014.5 |